TimeEST,TemperatureF,Dew PointF,Humidity,Sea Level PressureIn,VisibilityMPH,Wind Direction,Wind SpeedMPH,Gust SpeedMPH,PrecipitationIn,Events,Conditions,WindDirDegrees,DateUTC
12:53 AM,34.0,25.0,70,30.46,10.0,NNE,4.6,-,N/A,,Clear,30,2012-11-14 05:53:00
1:53 AM,30.0,25.0,82,30.48,10.0,North,3.5,-,N/A,,Clear,10,2012-11-14 06:53:00
2:53 AM,30.9,25.0,79,30.48,10.0,Calm,Calm,-,N/A,,Clear,0,2012-11-14 07:53:00
3:53 AM,27.0,24.1,89,30.48,10.0,Calm,Calm,-,N/A,,Clear,0,2012-11-14 08:53:00
4:53 AM,28.0,25.0,88,30.51,10.0,North,3.5,-,N/A,,Clear,360,2012-11-14 09:53:00
5:53 AM,28.9,24.1,82,30.53,10.0,North,4.6,-,N/A,,Clear,360,2012-11-14 10:53:00
6:53 AM,28.0,23.0,81,30.55,10.0,North,4.6,-,N/A,,Scattered Clouds,350,2012-11-14 11:53:00
7:53 AM,33.1,26.1,75,30.56,10.0,North,4.6,-,N/A,,Mostly Cloudy,10,2012-11-14 12:53:00
8:53 AM,37.9,25.0,60,30.56,10.0,North,12.7,-,N/A,,Overcast,10,2012-11-14 13:53:00
9:53 AM,41.0,24.1,51,30.56,10.0,North,16.1,21.9,N/A,,Scattered Clouds,360,2012-11-14 14:53:00
10:53 AM,43.0,24.1,47,30.55,10.0,NNW,12.7,-,N/A,,Clear,340,2012-11-14 15:53:00
11:53 AM,44.1,23.0,43,30.52,10.0,NNE,10.4,-,N/A,,Clear,20,2012-11-14 16:53:00
12:53 PM,46.0,24.1,42,30.50,10.0,NE,9.2,-,N/A,,Clear,40,2012-11-14 17:53:00
1:53 PM,46.0,21.0,37,30.49,10.0,NNE,11.5,-,N/A,,Clear,20,2012-11-14 18:53:00
2:53 PM,46.9,19.0,33,30.49,10.0,Variable,4.6,-,N/A,,Clear,0,2012-11-14 19:53:00
3:53 PM,45.0,17.1,33,30.50,10.0,NNE,4.6,-,N/A,,Clear,20,2012-11-14 20:53:00
4:53 PM,39.0,19.0,45,30.50,10.0,North,6.9,-,N/A,,Clear,350,2012-11-14 21:53:00
5:53 PM,35.1,19.9,54,30.51,10.0,NNE,3.5,-,N/A,,Clear,30,2012-11-14 22:53:00
6:53 PM,34.0,21.0,59,30.51,10.0,North,6.9,-,N/A,,Clear,360,2012-11-14 23:53:00
7:53 PM,34.0,21.9,61,30.51,10.0,NNE,3.5,-,N/A,,Clear,30,2012-11-15 00:53:00
8:53 PM,30.9,21.9,69,30.52,10.0,North,3.5,-,N/A,,Clear,360,2012-11-15 01:53:00
9:53 PM,32.0,21.9,66,30.52,10.0,North,4.6,-,N/A,,Clear,360,2012-11-15 02:53:00
10:53 PM,30.0,23.0,75,30.51,10.0,NNE,4.6,-,N/A,,Clear,20,2012-11-15 03:53:00
11:53 PM,30.0,21.0,69,30.49,10.0,North,8.1,-,N/A,,Clear,360,2012-11-15 04:53:00